| time (UTC) | temp F | wind direction | speed MPH | gust MPH | rain 1hr in | rain 24hr in | rain mn in | humidity % | barometer mb |
| 20260510204556 | 67 | 24 | 6.0 | 14.0 | 0.00 | 0.00 | 0.00 | 52 | 1020.5 |
| 20260510203055 | 67 | 19 | 6.0 | 11.0 | 0.00 | 0.00 | 0.00 | 51 | 1020.5 |
| 20260510201556 | 68 | 24 | 5.0 | 12.0 | 0.00 | 0.00 | 0.00 | 50 | 1020.6 |
| 20260510200057 | 68 | 24 | 8.0 | 16.0 | 0.00 | 0.00 | 0.00 | 49 | 1020.7 |
| 20260510194603 | 68 | 25 | 9.0 | 14.0 | 0.00 | 0.00 | 0.00 | 50 | 1020.8 |
| 20260510193054 | 67 | 51 | 8.0 | 16.0 | 0.00 | 0.00 | 0.00 | 49 | 1021.1 |
| 20260510191615 | 68 | 14 | 8.0 | 13.0 | 0.00 | 0.00 | 0.00 | 49 | 1021.0 |
| 20260510190100 | 68 | 35 | 8.0 | 13.0 | 0.00 | 0.00 | 0.00 | 48 | 1020.9 |
| 20260510184551 | 68 | 321 | 10.0 | 19.0 | 0.00 | 0.00 | 0.00 | 48 | 1020.8 |
| 20260510183057 | 69 | 22 | 6.0 | 15.0 | 0.00 | 0.00 | 0.00 | 50 | 1020.8 |
| 20260510181548 | 69 | 19 | 12.0 | 25.0 | 0.00 | 0.00 | 0.00 | 50 | 1020.9 |
| 20260510180052 | 69 | 48 | 13.0 | 20.0 | 0.00 | 0.00 | 0.00 | 49 | 1020.8 |
| 20260510174551 | 69 | 60 | 9.0 | 16.0 | 0.00 | 0.00 | 0.00 | 49 | 1020.6 |
| 20260510173043 | 69 | 29 | 9.0 | 18.0 | 0.00 | 0.00 | 0.00 | 49 | 1020.5 |
| 20260510171541 | 69 | 25 | 9.0 | 16.0 | 0.00 | 0.00 | 0.00 | 49 | 1020.4 |
| 20260510170037 | 68 | 318 | 6.0 | 13.0 | 0.00 | 0.00 | 0.00 | 51 | 1020.0 |
| 20260510164537 | 67 | 12 | 7.0 | 19.0 | 0.00 | 0.00 | 0.00 | 51 | 1020.2 |
| 20260510163035 | 66 | 22 | 11.0 | 20.0 | 0.00 | 0.00 | 0.00 | 51 | 1020.3 |
| 20260510161534 | 67 | 331 | 7.0 | 14.0 | 0.00 | 0.00 | 0.00 | 51 | 1020.2 |
| 20260510160032 | 66 | 19 | 10.0 | 21.0 | 0.00 | 0.00 | 0.00 | 52 | 1020.0 |
| 20260510154548 | 65 | 24 | 8.0 | 18.0 | 0.00 | 0.00 | 0.00 | 53 | 1019.9 |
| 20260510153032 | 64 | 13 | 8.0 | 18.0 | 0.00 | 0.00 | 0.00 | 56 | 1019.3 |
| 20260510151528 | 63 | 57 | 6.0 | 14.0 | 0.00 | 0.00 | 0.00 | 57 | 1019.1 |
| 20260510150027 | 62 | 44 | 10.0 | 18.0 | 0.00 | 0.00 | 0.00 | 58 | 1019.0 |
| 20260510144538 | 62 | 10 | 6.0 | 18.0 | 0.00 | 0.00 | 0.00 | 62 | 1019.1 |
| 20260510143036 | 61 | 20 | 8.0 | 19.0 | 0.00 | 0.00 | 0.00 | 63 | 1019.4 |
| 20260510141523 | 61 | 24 | 5.0 | 12.0 | 0.00 | 0.00 | 0.00 | 65 | 1019.5 |
| 20260510140021 | 61 | 27 | 7.0 | 14.0 | 0.00 | 0.00 | 0.00 | 66 | 1019.5 |
| 20260510134521 | 61 | 37 | 6.0 | 15.0 | 0.00 | 0.00 | 0.00 | 68 | 1019.4 |
| 20260510133016 | 61 | 340 | 5.0 | 11.0 | 0.00 | 0.00 | 0.00 | 70 | 1019.1 |
| 20260510131512 | 60 | 34 | 6.0 | 12.0 | 0.00 | 0.00 | 0.00 | 72 | 1018.5 |
| 20260510130013 | 60 | 19 | 4.0 | 12.0 | 0.00 | 0.00 | 0.00 | 73 | 1017.8 |
| 20260510124507 | 60 | 95 | 7.0 | 14.0 | 0.00 | 0.00 | 0.00 | 74 | 1017.6 |
| 20260510123005 | 61 | 60 | 9.0 | 16.0 | 0.00 | 0.00 | 0.00 | 74 | 1017.4 |
| 20260510121504 | 61 | 35 | 3.0 | 14.0 | 0.00 | 0.00 | 0.00 | 75 | 1017.1 |
| 20260510120058 | 0 | 0.0 | 0.0 | 0.00 | 0.00 | 0.00 | 1016.6 | ||
| 20260510114554 | 0 | 0.0 | 0.0 | 0.00 | 0.00 | 0.00 | 1016.4 | ||
| 20260510113049 | 0 | 0.0 | 0.0 | 0.00 | 0.00 | 0.00 | 1015.8 | ||
| 20260510111548 | 62 | 41 | 5.0 | 9.0 | 0.00 | 0.00 | 0.00 | 78 | 1015.6 |
| 20260510110045 | 61 | 30 | 6.0 | 11.0 | 0.00 | 0.00 | 0.00 | 78 | 1015.8 |
| 20260510104540 | 61 | 29 | 6.0 | 12.0 | 0.00 | 0.00 | 0.00 | 77 | 1015.6 |
| 20260510103040 | 62 | 28 | 5.0 | 11.0 | 0.00 | 0.00 | 0.00 | 76 | 1015.5 |
| 20260510101538 | 62 | 348 | 3.0 | 9.0 | 0.00 | 0.00 | 0.00 | 75 | 1015.5 |
| 20260510100034 | 63 | 63 | 5.0 | 8.0 | 0.00 | 0.00 | 0.00 | 73 | 1015.0 |
| 20260510094546 | 63 | 29 | 4.0 | 9.0 | 0.00 | 0.00 | 0.00 | 72 | 1014.9 |
| 20260510093045 | 64 | 35 | 7.0 | 13.0 | 0.00 | 0.00 | 0.00 | 71 | 1014.6 |
| 20260510091536 | 64 | 338 | 4.0 | 8.0 | 0.00 | 0.00 | 0.00 | 72 | 1014.4 |
| 20260510090027 | 65 | 21 | 4.0 | 7.0 | 0.00 | 0.00 | 0.00 | 71 | 1014.0 |
| 20260510084526 | 63 | 49 | 2.0 | 9.0 | 0.00 | 0.00 | 0.00 | 73 | 1013.6 |
| 20260510083023 | 62 | 312 | 0.0 | 0.0 | 0.00 | 0.00 | 0.00 | 81 | 1013.5 |
| 20260510081524 | 62 | 221 | 0.0 | 0.0 | 0.00 | 0.00 | 0.00 | 79 | 1013.4 |
| 20260510080024 | 63 | 221 | 0.0 | 0.0 | 0.00 | 0.00 | 0.00 | 80 | 1013.7 |
| 20260510074519 | 63 | 221 | 0.0 | 0.0 | 0.00 | 0.00 | 0.00 | 80 | 1013.6 |
| 20260510073019 | 63 | 221 | 0.0 | 0.0 | 0.00 | 0.00 | 0.00 | 77 | 1013.7 |
| 20260510071516 | 64 | 279 | 0.0 | 0.0 | 0.00 | 0.00 | 0.00 | 77 | 1013.6 |
| 20260510070021 | 65 | 279 | 0.0 | 0.0 | 0.00 | 0.00 | 0.00 | 75 | 1013.5 |
| 20260510064512 | 66 | 281 | 0.0 | 0.0 | 0.00 | 0.00 | 0.00 | 73 | 1013.5 |
| 20260510063010 | 66 | 323 | 0.0 | 1.0 | 0.00 | 0.00 | 0.00 | 72 | 1013.2 |
| 20260510061508 | 66 | 33 | 0.0 | 0.0 | 0.00 | 0.00 | 0.00 | 72 | 1013.0 |
| 20260510060009 | 67 | 33 | 0.0 | 0.0 | 0.00 | 0.00 | 0.00 | 72 | 1013.0 |
| 20260510054505 | 66 | 21 | 1.0 | 8.0 | 0.00 | 0.00 | 0.00 | 71 | 1012.9 |
| 20260510053105 | 64 | 11 | 1.0 | 4.0 | 0.00 | 0.00 | 0.00 | 82 | 1013.0 |
| 20260510051600 | 64 | 132 | 0.0 | 0.0 | 0.00 | 0.00 | 0.00 | 81 | 1013.0 |
| 20260510044556 | 64 | 132 | 0.0 | 0.0 | 0.00 | 0.00 | 0.00 | 80 | 1013.1 |
| 20260510043103 | 65 | 132 | 0.0 | 0.0 | 0.00 | 0.00 | 0.00 | 79 | 1013.2 |
| 20260510041555 | 65 | 132 | 0.0 | 0.0 | 0.00 | 0.00 | 0.00 | 78 | 1013.1 |
| 20260510040053 | 65 | 132 | 0.0 | 0.0 | 0.00 | 0.00 | 0.00 | 77 | 1012.9 |
| 20260510034553 | 66 | 132 | 0.0 | 0.0 | 0.00 | 0.00 | 0.00 | 77 | 1012.7 |
| 20260510033101 | 65 | 132 | 0.0 | 0.0 | 0.00 | 0.00 | 0.00 | 78 | 1012.5 |
| 20260510031551 | 65 | 132 | 0.0 | 0.0 | 0.00 | 0.00 | 0.00 | 76 | 1012.1 |
| 20260510030048 | 66 | 132 | 0.0 | 0.0 | 0.00 | 0.00 | 0.00 | 75 | 1011.9 |
| 20260510024548 | 66 | 132 | 0.0 | 0.0 | 0.00 | 0.00 | 0.00 | 73 | 1011.8 |
| 20260510023044 | 67 | 132 | 0.0 | 0.0 | 0.00 | 0.00 | 0.00 | 70 | 1011.5 |
| 20260510021549 | 68 | 132 | 0.0 | 0.0 | 0.00 | 0.00 | 0.00 | 69 | 1011.2 |
| 20260510020045 | 69 | 132 | 0.0 | 0.0 | 0.00 | 0.00 | 0.00 | 67 | 1010.8 |
| 20260510014544 | 70 | 132 | 0.0 | 0.0 | 0.00 | 0.00 | 0.00 | 65 | 1010.5 |
| 20260510013049 | 72 | 132 | 0.0 | 0.0 | 0.00 | 0.00 | 0.00 | 63 | 1010.1 |
| 20260510011545 | 73 | 132 | 0.0 | 1.0 | 0.00 | 0.00 | 0.00 | 60 | 1009.9 |
| 20260510010041 | 76 | 144 | 0.0 | 1.0 | 0.00 | 0.00 | 0.00 | 58 | 1009.7 |
| 20260510004543 | 78 | 153 | 0.0 | 4.0 | 0.00 | 0.00 | 0.00 | 56 | 1009.6 |
| 20260510003041 | 80 | 164 | 1.0 | 5.0 | 0.00 | 0.00 | 0.00 | 54 | 1009.6 |
| 20260510001542 | 81 | 151 | 0.0 | 5.0 | 0.00 | 0.00 | 0.00 | 54 | 1009.5 |
| 20260510000047 | 82 | 150 | 2.0 | 5.0 | 0.00 | 0.00 | 0.00 | 53 | 1009.5 |
| 20260509234538 | 82 | 143 | 2.0 | 6.0 | 0.00 | 0.00 | 0.00 | 52 | 1009.4 |
| 20260509233037 | 82 | 164 | 2.0 | 7.0 | 0.00 | 0.00 | 0.00 | 51 | 1009.5 |
| 20260509231540 | 83 | 159 | 5.0 | 8.0 | 0.00 | 0.00 | 0.00 | 50 | 1009.5 |
| 20260509230036 | 85 | 146 | 2.0 | 7.0 | 0.00 | 0.00 | 0.00 | 48 | 1009.5 |
| 20260509224534 | 85 | 155 | 1.0 | 6.0 | 0.00 | 0.00 | 0.00 | 47 | 1009.4 |
| 20260509223034 | 85 | 223 | 1.0 | 6.0 | 0.00 | 0.00 | 0.00 | 45 | 1009.5 |
| 20260509221534 | 85 | 230 | 2.0 | 7.0 | 0.00 | 0.00 | 0.00 | 45 | 1009.4 |
| 20260509220034 | 85 | 159 | 1.0 | 7.0 | 0.00 | 0.00 | 0.00 | 43 | 1009.6 |
| 20260509214530 | 85 | 137 | 3.0 | 6.0 | 0.00 | 0.00 | 0.00 | 45 | 1009.6 |
| 20260509213034 | 85 | 241 | 3.0 | 9.0 | 0.00 | 0.00 | 0.00 | 43 | 1009.7 |
| 20260509211529 | 84 | 278 | 3.0 | 9.0 | 0.00 | 0.00 | 0.00 | 43 | 1009.8 |
| 20260509210027 | 85 | 277 | 2.0 | 6.0 | 0.00 | 0.00 | 0.00 | 45 | 1010.0 |